Flag for Germany Weather past 2 weeks in Weil am Rhein, Baden-Württemberg, Germany

Now
61 °F

Overcast.


Feels Like: 61 °F
Forecast: 49 / 69 °F
Wind: 3 mph from Northwest

Location: Bale-Mulhouse

Current Time: Sep 3, 2015 at 4:33:07 AM

Latest Report: Sep 3, 2015 at 3:00 AM


Visibility: 25 mi

Pressure: 29.97 "Hg

Humidity: 74%

Dew point: 53 °F

Location of Weil am RheinLocation

Historic Weather in Weil am Rhein — Graph

°F

Weil am Rhein temperature yesterday

Maximum temperature yesterday: 73 °F (at 4:00 PM)
Minimum temperature yesterday: 54 °F (at 4:00 AM)
Average temperature yesterday: 64 °F

Past Weeks' High & Low Weather Summary

 TemperatureHumidityPressure
High93 °F (Aug 30, 4:00 PM)99% (Aug 20, 8:00 AM)30.26 "Hg (Aug 20, 8:00 AM)
Low49 °F (Aug 20, 7:00 AM)23% (Aug 31, 2:00 PM)29.68 "Hg (Aug 24, 1:00 PM)
Average68 °F69%30.01 "Hg
* Reported Aug 19 3:00 AM — Sep 3 3:00 AM, Weil am Rhein, Weather by CustomWeather, © 2015

Note: Actual official high and low records may vary slightly from our data, if they occured in-between our weather recording intervals... More about our weather records

Advertising

Weil am Rhein weather history for previous 24 hours

 ConditionsComfort  
Time TempWeatherWind HumidityBarometerVisibility
3:00 AM
Thu, Sep 3
61 °FOvercast.3 mph74%29.97 "Hg25 mi
2:00 AM61 °FOvercast.6 mph71%29.98 "Hg28 mi
1:00 AM61 °FOvercast.8 mph71%29.98 "Hg28 mi
12:00 AM62 °FOvercast.7 mph70%29.98 "Hg25 mi
10:00 PM
Wed, Sep 2
63 °FOvercast.8 mph68%29.98 "Hg25 mi
9:00 PM64 °FOvercast.8 mph66%29.97 "Hg25 mi
8:00 PM66 °FOvercast.7 mph61%29.96 "Hg25 mi
7:00 PM70 °FPartly sunny.9 mph57%29.95 "Hg16 mi
6:00 PM72 °FOvercast.3 mph49%29.95 "Hg16 mi
5:00 PM73 °FPartly sunny.6 mph42%29.95 "Hg16 mi
4:00 PM73 °FScattered clouds.3 mph43%29.95 "Hg16 mi
3:00 PM73 °FScattered clouds.3 mph46%29.96 "Hg16 mi
2:00 PM70 °FPartly sunny.5 mph53%29.98 "Hg12 mi
1:00 PM69 °FPartly sunny.3 mph59%30.00 "Hg9 mi
12:00 PM65 °FPartly sunny.3 mph71%30.02 "Hg9 mi
11:00 AM65 °FScattered clouds.5 mph73%30.03 "Hg6 mi
10:00 AM63 °FFog.2 mph73%30.03 "Hg6 mi
9:00 AM58 °FFog.1 mph91%30.05 "Hg3 mi
8:00 AM56 °FFog.2 mph98%30.06 "Hg2 mi
7:00 AM55 °FFog.1 mph99%30.05 "Hg1 mi
4:00 AM54 °FPassing clouds.2 mph96%30.08 "Hg12 mi
Weather by CustomWeather, © 2015

See weather overviewHow to use our weather pages